Time,TemperatureF,DewpointF,PressureIn,WindDirection,WindDirectionDegrees,WindSpeedMPH,WindSpeedGustMPH,Humidity,HourlyPrecipIn,Conditions,Clouds,dailyrainin,SoftwareType,DateUTC
2013-02-27 00:00:00,50.6,26.5,29.29,SW,225,5.1,5.4,39,0.00,,,0.00,WUHU216HW,2013-02-27 06:00:00,
2013-02-27 00:05:00,50.8,26.7,29.29,SW,225,2.9,6.0,39,0.00,,,0.00,WUHU216HW,2013-02-27 06:05:00,
2013-02-27 00:11:00,50.9,26.7,29.29,South,180,2.9,6.0,39,0.00,,,0.00,WUHU216HW,2013-02-27 06:11:00,
2013-02-27 00:16:00,50.9,26.7,29.29,SSE,158,3.8,5.4,39,0.00,,,0.00,WUHU216HW,2013-02-27 06:16:00,
2013-02-27 00:21:00,50.8,26.7,29.29,SW,225,2.5,5.4,39,0.00,,,0.00,WUHU216HW,2013-02-27 06:21:00,
2013-02-27 00:26:00,50.8,26.7,29.30,SSW,203,3.6,5.4,39,0.00,,,0.00,WUHU216HW,2013-02-27 06:26:00,
2013-02-27 00:31:00,50.8,26.7,29.30,SE,135,1.6,6.7,39,0.00,,,0.00,WUHU216HW,2013-02-27 06:31:00,
2013-02-27 00:36:00,50.8,27.3,29.30,SSE,158,7.2,7.4,40,0.00,,,0.00,WUHU216HW,2013-02-27 06:36:00,
2013-02-27 00:41:00,50.8,27.3,29.29,SSW,203,4.0,7.4,40,0.00,,,0.00,WUHU216HW,2013-02-27 06:41:00,
2013-02-27 00:46:00,50.8,27.3,29.30,ESE,113,2.5,5.4,40,0.00,,,0.00,WUHU216HW,2013-02-27 06:46:00,
2013-02-27 00:51:00,50.8,27.3,29.30,South,180,2.5,5.4,40,0.00,,,0.00,WUHU216HW,2013-02-27 06:51:00,
2013-02-27 00:56:00,50.4,27.0,29.30,SSW,203,4.3,4.3,40,0.00,,,0.00,WUHU216HW,2013-02-27 06:56:00,
2013-02-27 01:01:00,50.4,27.6,29.30,SSE,158,1.3,4.3,41,0.00,,,0.00,WUHU216HW,2013-02-27 07:01:00,
2013-02-27 01:06:00,50.2,27.4,29.30,ESE,113,1.1,3.4,41,0.00,,,0.00,WUHU216HW,2013-02-27 07:06:00,
2013-02-27 01:11:00,50.0,27.2,29.30,WSW,248,0.7,2.5,41,0.00,,,0.00,WUHU216HW,2013-02-27 07:11:00,
2013-02-27 01:16:00,49.9,27.0,29.31,SW,225,0.2,2.2,41,0.00,,,0.00,WUHU216HW,2013-02-27 07:16:00,
2013-02-27 01:21:00,49.5,26.7,29.30,SSE,158,1.3,1.8,41,0.00,,,0.00,WUHU216HW,2013-02-27 07:21:00,
2013-02-27 01:26:00,49.3,26.6,29.31,SSW,203,0.4,1.8,41,0.00,,,0.00,WUHU216HW,2013-02-27 07:26:00,
2013-02-27 01:31:00,49.1,26.9,29.31,SSW,203,0.0,1.8,42,0.00,,,0.00,WUHU216HW,2013-02-27 07:31:00,
2013-02-27 01:36:00,49.0,26.7,29.31,WSW,248,0.0,1.6,42,0.00,,,0.00,WUHU216HW,2013-02-27 07:36:00,
2013-02-27 01:41:00,48.6,26.5,29.31,SW,225,0.2,0.4,42,0.00,,,0.00,WUHU216HW,2013-02-27 07:41:00,
2013-02-27 01:46:00,48.4,26.8,29.31,SSW,203,0.9,0.9,43,0.00,,,0.00,WUHU216HW,2013-02-27 07:46:00,
2013-02-27 01:51:00,48.1,26.5,29.31,SSW,203,0.9,1.1,43,0.00,,,0.00,WUHU216HW,2013-02-27 07:51:00,
2013-02-27 01:57:00,47.9,26.3,29.31,SW,225,1.1,1.6,43,0.00,,,0.00,WUHU216HW,2013-02-27 07:57:00,
2013-02-27 02:02:00,47.9,26.3,29.31,SW,225,1.1,2.0,43,0.00,,,0.00,WUHU216HW,2013-02-27 08:02:00,
2013-02-27 02:07:00,47.7,26.7,29.31,South,180,1.3,2.0,44,0.00,,,0.00,WUHU216HW,2013-02-27 08:07:00,
2013-02-27 02:12:00,47.7,26.7,29.30,SSW,203,1.6,1.8,44,0.00,,,0.00,WUHU216HW,2013-02-27 08:12:00,
2013-02-27 02:17:00,47.5,27.1,29.30,SW,225,2.0,2.0,45,0.00,,,0.00,WUHU216HW,2013-02-27 08:17:00,
2013-02-27 02:22:00,47.5,27.1,29.31,SSW,203,0.7,2.0,45,0.00,,,0.00,WUHU216HW,2013-02-27 08:22:00,
2013-02-27 02:27:00,47.5,27.1,29.31,SSW,203,1.3,1.8,45,0.00,,,0.00,WUHU216HW,2013-02-27 08:27:00,
2013-02-27 02:32:00,47.5,27.1,29.31,SSE,158,0.4,1.8,45,0.00,,,0.00,WUHU216HW,2013-02-27 08:32:00,
2013-02-27 02:37:00,47.5,27.6,29.31,SE,135,1.3,1.8,46,0.00,,,0.00,WUHU216HW,2013-02-27 08:37:00,
2013-02-27 02:42:00,47.5,27.6,29.31,SE,135,0.2,1.8,46,0.00,,,0.00,WUHU216HW,2013-02-27 08:42:00,
2013-02-27 02:47:00,47.3,27.5,29.31,South,180,0.7,1.8,46,0.00,,,0.00,WUHU216HW,2013-02-27 08:47:00,
2013-02-27 02:52:00,47.3,28.0,29.31,South,180,1.3,1.8,47,0.00,,,0.00,WUHU216HW,2013-02-27 08:52:00,
2013-02-27 02:57:00,47.3,28.0,29.31,WSW,248,0.4,1.8,47,0.00,,,0.00,WUHU216HW,2013-02-27 08:57:00,
2013-02-27 03:02:00,47.3,28.0,29.32,NNW,338,0.0,0.7,47,0.00,,,0.00,WUHU216HW,2013-02-27 09:02:00,
2013-02-27 03:07:00,47.0,28.2,29.32,NNW,338,0.0,0.0,48,0.00,,,0.00,WUHU216HW,2013-02-27 09:07:00,
2013-02-27 03:12:00,46.8,28.1,29.32,NW,315,0.0,0.0,48,0.00,,,0.00,WUHU216HW,2013-02-27 09:12:00,
2013-02-27 03:17:00,46.6,27.9,29.32,NNW,338,0.0,0.2,48,0.00,,,0.00,WUHU216HW,2013-02-27 09:17:00,
2013-02-27 03:22:00,46.4,27.7,29.31,WSW,248,0.0,0.2,48,0.00,,,0.00,WUHU216HW,2013-02-27 09:22:00,
2013-02-27 03:27:00,46.4,28.3,29.31,SW,225,0.0,0.0,49,0.00,,,0.00,WUHU216HW,2013-02-27 09:27:00,
2013-02-27 03:32:00,46.4,28.3,29.31,North,0,0.0,0.0,49,0.00,,,0.00,WUHU216HW,2013-02-27 09:32:00,
2013-02-27 03:37:00,46.4,28.3,29.31,SSE,158,0.0,0.0,49,0.00,,,0.00,WUHU216HW,2013-02-27 09:37:00,
2013-02-27 03:42:00,46.4,28.3,29.31,North,0,0.0,0.0,49,0.00,,,0.00,WUHU216HW,2013-02-27 09:42:00,
2013-02-27 03:47:00,46.4,28.8,29.31,North,0,0.0,0.0,50,0.00,,,0.00,WUHU216HW,2013-02-27 09:47:00,
2013-02-27 03:52:00,46.1,28.4,29.31,North,0,0.0,0.0,50,0.00,,,0.00,WUHU216HW,2013-02-27 09:52:00,
2013-02-27 03:57:00,45.9,28.4,29.31,NNE,23,0.0,0.0,50,0.00,,,0.00,WUHU216HW,2013-02-27 09:57:00,
2013-02-27 04:02:00,45.9,28.4,29.31,ESE,113,0.0,0.0,50,0.00,,,0.00,WUHU216HW,2013-02-27 10:02:00,
2013-02-27 04:08:00,45.7,28.2,29.31,SW,225,0.0,0.0,50,0.00,,,0.00,WUHU216HW,2013-02-27 10:08:00,
2013-02-27 04:13:00,45.7,28.6,29.32,WSW,248,0.0,0.0,51,0.00,,,0.00,WUHU216HW,2013-02-27 10:13:00,
2013-02-27 04:18:00,45.7,28.6,29.32,WSW,248,0.0,0.0,51,0.00,,,0.00,WUHU216HW,2013-02-27 10:18:00,
2013-02-27 04:23:00,45.5,28.9,29.32,SW,225,0.0,0.0,52,0.00,,,0.00,WUHU216HW,2013-02-27 10:23:00,
2013-02-27 04:28:00,45.5,28.9,29.32,SW,225,1.3,1.3,52,0.00,,,0.00,WUHU216HW,2013-02-27 10:28:00,
2013-02-27 04:33:00,45.5,28.9,29.32,WSW,248,1.1,1.3,52,0.00,,,0.00,WUHU216HW,2013-02-27 10:33:00,
2013-02-27 04:38:00,45.5,28.9,29.32,WSW,248,0.4,1.3,52,0.00,,,0.00,WUHU216HW,2013-02-27 10:38:00,
2013-02-27 04:43:00,45.4,28.7,29.32,West,270,0.0,1.1,52,0.00,,,0.00,WUHU216HW,2013-02-27 10:43:00,
2013-02-27 04:48:00,45.0,28.9,29.32,West,270,0.0,0.0,53,0.00,,,0.00,WUHU216HW,2013-02-27 10:48:00,
2013-02-27 04:53:00,44.6,28.5,29.33,NW,315,0.0,0.0,53,0.00,,,0.00,WUHU216HW,2013-02-27 10:53:00,
2013-02-27 04:58:00,44.3,28.2,29.33,NNW,338,0.0,0.0,53,0.00,,,0.00,WUHU216HW,2013-02-27 10:58:00,
2013-02-27 05:03:00,44.3,28.2,29.34,NNW,338,0.0,0.2,53,0.00,,,0.00,WUHU216HW,2013-02-27 11:03:00,
2013-02-27 05:08:00,44.1,28.0,29.34,NNW,338,0.9,0.9,53,0.00,,,0.00,WUHU216HW,2013-02-27 11:08:00,
2013-02-27 05:13:00,43.9,30.5,29.35,NNW,338,2.0,2.0,59,0.00,,,0.00,WUHU216HW,2013-02-27 11:13:00,
2013-02-27 05:18:00,42.7,30.9,29.38,North,0,4.7,4.7,63,0.00,,,0.00,WUHU216HW,2013-02-27 11:18:00,
2013-02-27 05:23:00,42.8,30.7,29.37,NNW,338,2.5,4.7,62,0.00,,,0.00,WUHU216HW,2013-02-27 11:23:00,
2013-02-27 05:28:00,43.7,30.8,29.37,NNW,338,1.6,2.7,60,0.00,,,0.00,WUHU216HW,2013-02-27 11:28:00,
2013-02-27 05:33:00,44.3,31.3,29.38,North,0,2.0,2.0,60,0.00,,,0.00,WUHU216HW,2013-02-27 11:33:00,
2013-02-27 05:38:00,45.2,31.2,29.37,NNE,23,1.6,2.5,58,0.00,,,0.00,WUHU216HW,2013-02-27 11:38:00,
2013-02-27 05:43:00,46.1,31.1,29.38,North,0,2.5,2.5,56,0.00,,,0.00,WUHU216HW,2013-02-27 11:43:00,
2013-02-27 05:49:00,46.6,30.8,29.38,North,0,1.8,2.5,54,0.00,,,0.00,WUHU216HW,2013-02-27 11:49:00,
2013-02-27 05:54:00,47.0,30.7,29.39,NNW,338,1.6,4.3,53,0.00,,,0.00,WUHU216HW,2013-02-27 11:54:00,
2013-02-27 05:59:00,46.8,30.1,29.38,North,0,0.7,4.3,52,0.00,,,0.00,WUHU216HW,2013-02-27 11:59:00,
2013-02-27 06:04:00,47.2,29.9,29.39,North,0,1.1,2.2,51,0.00,,,0.00,WUHU216HW,2013-02-27 12:04:00,
2013-02-27 06:09:00,47.5,29.8,29.39,NW,315,1.1,2.5,50,0.00,,,0.00,WUHU216HW,2013-02-27 12:09:00,
2013-02-27 06:14:00,47.7,29.4,29.39,WNW,293,1.3,2.9,49,0.00,,,0.00,WUHU216HW,2013-02-27 12:14:00,
2013-02-27 06:19:00,47.9,29.0,29.39,NW,315,1.6,2.9,48,0.00,,,0.00,WUHU216HW,2013-02-27 12:19:00,
2013-02-27 06:24:00,48.1,29.2,29.39,West,270,2.0,2.5,48,0.00,,,0.00,WUHU216HW,2013-02-27 12:24:00,
2013-02-27 06:29:00,48.2,29.3,29.39,WNW,293,1.6,2.7,48,0.00,,,0.00,WUHU216HW,2013-02-27 12:29:00,
2013-02-27 06:34:00,48.1,29.2,29.39,WSW,248,0.4,2.7,48,0.00,,,0.00,WUHU216HW,2013-02-27 12:34:00,
2013-02-27 06:39:00,47.9,29.0,29.39,SSW,203,1.1,2.0,48,0.00,,,0.00,WUHU216HW,2013-02-27 12:39:00,
2013-02-27 06:44:00,47.7,28.9,29.39,WSW,248,1.1,1.6,48,0.00,,,0.00,WUHU216HW,2013-02-27 12:44:00,
2013-02-27 06:49:00,47.5,28.7,29.39,WSW,248,0.7,2.5,48,0.00,,,0.00,WUHU216HW,2013-02-27 12:49:00,
2013-02-27 06:54:00,47.7,28.9,29.40,WSW,248,0.0,2.5,48,0.00,,,0.00,WUHU216HW,2013-02-27 12:54:00,
2013-02-27 06:59:00,47.7,28.9,29.40,SSE,158,0.0,1.1,48,0.00,,,0.00,WUHU216HW,2013-02-27 12:59:00,
2013-02-27 07:04:00,47.5,28.7,29.40,South,180,0.0,0.7,48,0.00,,,0.00,WUHU216HW,2013-02-27 13:04:00,
2013-02-27 07:09:00,47.5,28.7,29.41,SW,225,1.3,1.3,48,0.00,,,0.00,WUHU216HW,2013-02-27 13:09:00,
2013-02-27 07:14:00,47.5,28.7,29.41,SE,135,0.4,1.8,48,0.00,,,0.00,WUHU216HW,2013-02-27 13:14:00,
2013-02-27 07:19:00,47.5,28.7,29.41,SSE,158,1.8,1.8,48,0.00,,,0.00,WUHU216HW,2013-02-27 13:19:00,
2013-02-27 07:24:00,47.7,28.9,29.42,WSW,248,0.4,1.8,48,0.00,,,0.00,WUHU216HW,2013-02-27 13:24:00,
2013-02-27 07:29:00,47.5,28.7,29.42,West,270,1.8,2.2,48,0.00,,,0.00,WUHU216HW,2013-02-27 13:29:00,
2013-02-27 07:34:00,47.9,28.4,29.42,WSW,248,2.0,2.5,47,0.00,,,0.00,WUHU216HW,2013-02-27 13:34:00,
2013-02-27 07:39:00,48.8,27.7,29.42,North,0,2.5,4.7,44,0.00,,,0.00,WUHU216HW,2013-02-27 13:39:00,
2013-02-27 07:44:00,49.5,27.3,29.42,NNW,338,2.9,4.7,42,0.00,,,0.00,WUHU216HW,2013-02-27 13:44:00,
2013-02-27 07:49:00,49.7,27.5,29.43,NW,315,1.8,4.0,42,0.00,,,0.00,WUHU216HW,2013-02-27 13:49:00,
2013-02-27 07:54:00,50.2,27.4,29.43,NNE,23,1.6,2.7,41,0.00,,,0.00,WUHU216HW,2013-02-27 13:54:00,
2013-02-27 07:59:00,50.8,27.3,29.44,NE,45,2.5,9.2,40,0.00,,,0.00,WUHU216HW,2013-02-27 13:59:00,
2013-02-27 08:04:00,51.7,26.0,29.44,North,0,3.8,9.2,37,0.00,,,0.00,WUHU216HW,2013-02-27 14:04:00,
2013-02-27 08:09:00,52.7,24.9,29.44,North,0,4.0,6.5,34,0.00,,,0.00,WUHU216HW,2013-02-27 14:09:00,
2013-02-27 08:14:00,53.5,25.7,29.45,North,0,8.7,8.7,34,0.00,,,0.00,WUHU216HW,2013-02-27 14:14:00,
2013-02-27 08:19:00,53.8,25.9,29.45,NNW,338,9.8,10.1,34,0.00,,,0.00,WUHU216HW,2013-02-27 14:19:00,
2013-02-27 08:24:00,53.8,25.9,29.46,North,0,6.3,10.1,34,0.00,,,0.00,WUHU216HW,2013-02-27 14:24:00,
2013-02-27 08:29:00,53.8,25.9,29.46,North,0,7.8,9.2,34,0.00,,,0.00,WUHU216HW,2013-02-27 14:29:00,
2013-02-27 08:34:00,53.8,27.3,29.47,NNE,23,9.2,14.8,36,0.00,,,0.00,WUHU216HW,2013-02-27 14:34:00,
2013-02-27 08:40:00,53.8,27.3,29.47,North,0,6.3,14.8,36,0.00,,,0.00,WUHU216HW,2013-02-27 14:40:00,
2013-02-27 08:45:00,54.0,27.5,29.47,North,0,6.3,11.6,36,0.00,,,0.00,WUHU216HW,2013-02-27 14:45:00,
2013-02-27 08:50:00,54.2,27.6,29.47,NNW,338,7.6,11.6,36,0.00,,,0.00,WUHU216HW,2013-02-27 14:50:00,
2013-02-27 08:55:00,54.4,28.4,29.47,North,0,9.6,10.5,37,0.00,,,0.00,WUHU216HW,2013-02-27 14:55:00,
2013-02-27 09:00:00,54.0,28.2,29.48,NNE,23,9.8,9.8,37,0.00,,,0.00,WUHU216HW,2013-02-27 15:00:00,
2013-02-27 09:05:00,53.6,27.8,29.49,NNE,23,9.6,9.8,37,0.00,,,0.00,WUHU216HW,2013-02-27 15:05:00,
2013-02-27 09:10:00,53.5,28.4,29.49,NNW,338,10.1,13.6,38,0.00,,,0.00,WUHU216HW,2013-02-27 15:10:00,
2013-02-27 09:15:00,53.5,29.1,29.50,NNW,338,11.2,13.6,39,0.00,,,0.00,WUHU216HW,2013-02-27 15:15:00,
2013-02-27 09:20:00,53.5,29.1,29.50,NE,45,8.5,12.8,39,0.00,,,0.00,WUHU216HW,2013-02-27 15:20:00,
2013-02-27 09:25:00,53.3,30.2,29.50,NW,315,14.3,14.8,41,0.00,,,0.00,WUHU216HW,2013-02-27 15:25:00,
2013-02-27 09:30:00,52.9,29.8,29.50,NNE,23,8.5,14.8,41,0.00,,,0.00,WUHU216HW,2013-02-27 15:30:00,
2013-02-27 09:35:00,52.7,30.8,29.51,WNW,293,5.4,14.1,43,0.00,,,0.00,WUHU216HW,2013-02-27 15:35:00,
2013-02-27 09:40:00,52.6,31.1,29.51,NNE,23,6.0,14.1,44,0.00,,,0.00,WUHU216HW,2013-02-27 15:40:00,
2013-02-27 09:45:00,52.4,30.4,29.51,North,0,11.4,11.4,43,0.00,,,0.00,WUHU216HW,2013-02-27 15:45:00,
2013-02-27 09:50:00,52.4,31.0,29.52,North,0,7.8,12.3,44,0.00,,,0.00,WUHU216HW,2013-02-27 15:50:00,
2013-02-27 09:55:00,52.7,31.3,29.52,ENE,68,8.9,15.0,44,0.00,,,0.00,WUHU216HW,2013-02-27 15:55:00,
2013-02-27 10:00:00,52.9,32.1,29.52,North,0,10.1,15.0,45,0.00,,,0.00,WUHU216HW,2013-02-27 16:00:00,
2013-02-27 10:05:00,52.9,32.1,29.52,North,0,11.2,17.2,45,0.00,,,0.00,WUHU216HW,2013-02-27 16:05:00,
2013-02-27 10:10:00,53.1,32.2,29.51,NE,45,10.7,17.2,45,0.00,,,0.00,WUHU216HW,2013-02-27 16:10:00,
2013-02-27 10:15:00,53.6,32.1,29.52,North,0,11.4,12.8,44,0.00,,,0.00,WUHU216HW,2013-02-27 16:15:00,
2013-02-27 10:20:00,54.4,32.8,29.52,NNE,23,9.4,11.4,44,0.00,,,0.00,WUHU216HW,2013-02-27 16:20:00,
2013-02-27 10:25:00,54.5,33.0,29.52,North,0,6.7,9.8,44,0.00,,,0.00,WUHU216HW,2013-02-27 16:25:00,
2013-02-27 10:30:00,54.7,32.5,29.53,NNE,23,12.3,12.3,43,0.00,,,0.00,WUHU216HW,2013-02-27 16:30:00,
2013-02-27 10:36:00,54.7,32.5,29.53,North,0,10.3,12.3,43,0.00,,,0.00,WUHU216HW,2013-02-27 16:36:00,
2013-02-27 10:41:00,55.1,32.3,29.53,NNW,338,7.2,10.3,42,0.00,,,0.00,WUHU216HW,2013-02-27 16:41:00,
2013-02-27 10:46:00,55.3,32.5,29.53,NNE,23,10.3,11.9,42,0.00,,,0.00,WUHU216HW,2013-02-27 16:46:00,
2013-02-27 10:51:00,55.4,32.0,29.53,NNE,23,6.7,12.1,41,0.00,,,0.00,WUHU216HW,2013-02-27 16:51:00,
2013-02-27 10:56:00,55.8,31.9,29.53,NNE,23,11.4,14.5,40,0.00,,,0.00,WUHU216HW,2013-02-27 16:56:00,
2013-02-27 11:01:00,55.8,31.9,29.54,NNE,23,7.6,14.5,40,0.00,,,0.00,WUHU216HW,2013-02-27 17:01:00,
2013-02-27 11:06:00,55.8,31.9,29.53,NNW,338,11.4,11.9,40,0.00,,,0.00,WUHU216HW,2013-02-27 17:06:00,
2013-02-27 11:11:00,55.8,31.9,29.54,NNE,23,11.4,12.5,40,0.00,,,0.00,WUHU216HW,2013-02-27 17:11:00,
2013-02-27 11:16:00,56.3,32.9,29.54,North,0,8.1,12.5,41,0.00,,,0.00,WUHU216HW,2013-02-27 17:16:00,
2013-02-27 11:21:00,56.7,32.7,29.54,NNE,23,7.6,9.8,40,0.00,,,0.00,WUHU216HW,2013-02-27 17:21:00,
2013-02-27 11:26:00,57.2,33.1,29.54,North,0,3.1,9.2,40,0.00,,,0.00,WUHU216HW,2013-02-27 17:26:00,
2013-02-27 11:31:00,57.8,33.0,29.55,NNE,23,6.9,8.7,39,0.00,,,0.00,WUHU216HW,2013-02-27 17:31:00,
2013-02-27 11:36:00,57.8,32.2,29.54,North,0,6.5,8.7,38,0.00,,,0.00,WUHU216HW,2013-02-27 17:36:00,
2013-02-27 11:41:00,58.0,32.4,29.54,North,0,5.8,9.8,38,0.00,,,0.00,WUHU216HW,2013-02-27 17:41:00,
2013-02-27 11:46:00,58.3,32.7,29.54,NNE,23,6.3,9.8,38,0.00,,,0.00,WUHU216HW,2013-02-27 17:46:00,
2013-02-27 11:51:00,58.5,32.9,29.54,NNE,23,12.1,12.1,38,0.00,,,0.00,WUHU216HW,2013-02-27 17:51:00,
2013-02-27 11:56:00,58.7,33.0,29.54,NNE,23,3.6,12.1,38,0.00,,,0.00,WUHU216HW,2013-02-27 17:56:00,
2013-02-27 12:01:00,59.2,32.8,29.55,NE,45,7.4,9.4,37,0.00,,,0.00,WUHU216HW,2013-02-27 18:01:00,
2013-02-27 12:06:00,59.4,32.2,29.55,NE,45,8.5,9.2,36,0.00,,,0.00,WUHU216HW,2013-02-27 18:06:00,
2013-02-27 12:11:00,59.0,32.7,29.55,North,0,7.2,11.2,37,0.00,,,0.00,WUHU216HW,2013-02-27 18:11:00,
2013-02-27 12:16:00,59.2,32.8,29.55,North,0,5.6,11.2,37,0.00,,,0.00,WUHU216HW,2013-02-27 18:16:00,
2013-02-27 12:21:00,59.6,33.1,29.55,NNE,23,3.4,7.6,37,0.00,,,0.00,WUHU216HW,2013-02-27 18:21:00,
2013-02-27 12:26:00,59.9,33.4,29.55,NNW,338,4.7,8.3,37,0.00,,,0.00,WUHU216HW,2013-02-27 18:26:00,
2013-02-27 12:31:00,60.5,33.2,29.55,NE,45,3.4,8.3,36,0.00,,,0.00,WUHU216HW,2013-02-27 18:31:00,
2013-02-27 12:36:00,60.7,32.6,29.55,NNE,23,9.6,9.6,35,0.00,,,0.00,WUHU216HW,2013-02-27 18:36:00,
2013-02-27 12:41:00,60.5,32.5,29.55,NNW,338,9.4,9.6,35,0.00,,,0.00,WUHU216HW,2013-02-27 18:41:00,
2013-02-27 12:46:00,60.3,31.6,29.55,North,0,6.5,9.4,34,0.00,,,0.00,WUHU216HW,2013-02-27 18:46:00,
2013-02-27 12:51:00,60.7,31.9,29.55,NNE,23,2.0,7.6,34,0.00,,,0.00,WUHU216HW,2013-02-27 18:51:00,
2013-02-27 12:56:00,60.5,31.8,29.55,NNW,338,4.5,7.2,34,0.00,,,0.00,WUHU216HW,2013-02-27 18:56:00,
2013-02-27 13:01:00,60.8,32.8,29.55,ENE,68,5.4,6.3,35,0.00,,,0.00,WUHU216HW,2013-02-27 19:01:00,
2013-02-27 13:06:00,61.0,33.7,29.54,NW,315,1.1,6.9,36,0.00,,,0.00,WUHU216HW,2013-02-27 19:06:00,
2013-02-27 13:11:00,61.2,32.4,29.54,NE,45,4.0,8.1,34,0.00,,,0.00,WUHU216HW,2013-02-27 19:11:00,
2013-02-27 13:16:00,61.4,32.5,29.54,NNW,338,1.1,8.1,34,0.00,,,0.00,WUHU216HW,2013-02-27 19:16:00,
2013-02-27 13:21:00,61.6,32.0,29.53,NE,45,6.0,7.4,33,0.00,,,0.00,WUHU216HW,2013-02-27 19:21:00,
2013-02-27 13:26:00,61.6,32.0,29.53,NE,45,7.8,13.9,33,0.00,,,0.00,WUHU216HW,2013-02-27 19:26:00,
2013-02-27 13:31:00,61.7,31.4,29.53,ENE,68,7.2,13.9,32,0.00,,,0.00,WUHU216HW,2013-02-27 19:31:00,
2013-02-27 13:36:00,61.6,31.2,29.54,West,270,6.9,10.5,32,0.00,,,0.00,WUHU216HW,2013-02-27 19:36:00,
2013-02-27 13:42:00,61.6,31.2,29.53,NW,315,8.3,10.5,32,0.00,,,0.00,WUHU216HW,2013-02-27 19:42:00,
2013-02-27 13:47:00,61.6,32.0,29.53,North,0,3.4,8.3,33,0.00,,,0.00,WUHU216HW,2013-02-27 19:47:00,
2013-02-27 13:52:00,61.9,31.6,29.53,NNE,23,8.9,8.9,32,0.00,,,0.00,WUHU216HW,2013-02-27 19:52:00,
2013-02-27 13:57:00,61.9,30.9,29.53,NE,45,5.8,8.9,31,0.00,,,0.00,WUHU216HW,2013-02-27 19:57:00,
2013-02-27 14:02:00,62.1,31.1,29.53,NNE,23,0.9,8.9,31,0.00,,,0.00,WUHU216HW,2013-02-27 20:02:00,
2013-02-27 14:07:00,61.6,30.5,29.52,North,0,4.7,8.5,31,0.00,,,0.00,WUHU216HW,2013-02-27 20:07:00,
2013-02-27 14:12:00,61.7,30.0,29.53,WNW,293,5.4,8.5,30,0.00,,,0.00,WUHU216HW,2013-02-27 20:12:00,
2013-02-27 14:17:00,62.1,31.1,29.53,North,0,4.0,7.8,31,0.00,,,0.00,WUHU216HW,2013-02-27 20:17:00,
2013-02-27 14:22:00,62.1,29.4,29.53,North,0,7.6,8.3,29,0.00,,,0.00,WUHU216HW,2013-02-27 20:22:00,
2013-02-27 14:27:00,62.6,28.8,29.52,NW,315,4.7,8.3,28,0.00,,,0.00,WUHU216HW,2013-02-27 20:27:00,
2013-02-27 14:32:00,62.6,28.8,29.52,North,0,5.8,9.2,28,0.00,,,0.00,WUHU216HW,2013-02-27 20:32:00,
2013-02-27 14:37:00,62.6,28.8,29.53,North,0,5.1,9.2,28,0.00,,,0.00,WUHU216HW,2013-02-27 20:37:00,
2013-02-27 14:42:00,62.5,27.7,29.52,NNE,23,5.4,9.6,27,0.00,,,0.00,WUHU216HW,2013-02-27 20:42:00,
2013-02-27 14:47:00,63.2,26.4,29.52,NNW,338,2.9,10.7,25,0.00,,,0.00,WUHU216HW,2013-02-27 20:47:00,
2013-02-27 14:52:00,63.2,26.4,29.52,NNW,338,6.9,10.7,25,0.00,,,0.00,WUHU216HW,2013-02-27 20:52:00,
2013-02-27 14:57:00,63.2,26.4,29.52,North,0,7.6,10.3,25,0.00,,,0.00,WUHU216HW,2013-02-27 20:57:00,
2013-02-27 15:02:00,62.8,26.1,29.52,NNW,338,7.4,10.3,25,0.00,,,0.00,WUHU216HW,2013-02-27 21:02:00,
2013-02-27 15:07:00,62.8,26.1,29.51,North,0,5.6,9.8,25,0.00,,,0.00,WUHU216HW,2013-02-27 21:07:00,
2013-02-27 15:12:00,62.8,26.1,29.51,NE,45,9.2,9.2,25,0.00,,,0.00,WUHU216HW,2013-02-27 21:12:00,
2013-02-27 15:17:00,63.0,26.2,29.51,NNW,338,2.9,9.2,25,0.00,,,0.00,WUHU216HW,2013-02-27 21:17:00,
2013-02-27 15:22:00,62.8,25.1,29.51,NNE,23,7.4,7.6,24,0.00,,,0.00,WUHU216HW,2013-02-27 21:22:00,
2013-02-27 15:27:00,62.5,25.7,29.51,NNE,23,8.3,8.3,25,0.00,,,0.00,WUHU216HW,2013-02-27 21:27:00,
2013-02-27 15:32:00,62.8,26.1,29.51,NNE,23,7.6,8.3,25,0.00,,,0.00,WUHU216HW,2013-02-27 21:32:00,
2013-02-27 15:37:00,62.3,25.7,29.51,North,0,4.5,7.6,25,0.00,,,0.00,WUHU216HW,2013-02-27 21:37:00,
2013-02-27 15:42:00,62.5,25.7,29.51,North,0,4.7,6.5,25,0.00,,,0.00,WUHU216HW,2013-02-27 21:42:00,
2013-02-27 15:47:00,62.6,26.9,29.51,NE,45,3.4,5.1,26,0.00,,,0.00,WUHU216HW,2013-02-27 21:47:00,
2013-02-27 15:52:00,63.4,26.6,29.51,NNE,23,5.4,6.3,25,0.00,,,0.00,WUHU216HW,2013-02-27 21:52:00,
2013-02-27 15:57:00,63.2,27.4,29.52,NNE,23,4.5,8.1,26,0.00,,,0.00,WUHU216HW,2013-02-27 21:57:00,
2013-02-27 16:02:00,63.5,26.7,29.52,North,0,6.5,8.1,25,0.00,,,0.00,WUHU216HW,2013-02-27 22:02:00,
2013-02-27 16:08:00,63.9,26.0,29.52,North,0,5.4,8.5,24,0.00,,,0.00,WUHU216HW,2013-02-27 22:08:00,
2013-02-27 16:13:00,63.7,24.8,29.52,North,0,3.4,8.5,23,0.00,,,0.00,WUHU216HW,2013-02-27 22:13:00,
2013-02-27 16:18:00,63.7,25.8,29.52,NW,315,4.0,8.1,24,0.00,,,0.00,WUHU216HW,2013-02-27 22:18:00,
2013-02-27 16:23:00,63.7,25.8,29.52,North,0,2.7,8.3,24,0.00,,,0.00,WUHU216HW,2013-02-27 22:23:00,
2013-02-27 16:28:00,63.5,25.8,29.52,NNE,23,8.5,8.7,24,0.00,,,0.00,WUHU216HW,2013-02-27 22:28:00,
2013-02-27 16:33:00,63.0,25.3,29.52,NNE,23,5.1,9.6,24,0.00,,,0.00,WUHU216HW,2013-02-27 22:33:00,
2013-02-27 16:38:00,63.0,25.3,29.52,NNE,23,2.9,9.6,24,0.00,,,0.00,WUHU216HW,2013-02-27 22:38:00,
2013-02-27 16:43:00,63.0,25.3,29.52,NNE,23,7.4,7.4,24,0.00,,,0.00,WUHU216HW,2013-02-27 22:43:00,
2013-02-27 16:48:00,63.0,25.3,29.52,North,0,3.4,7.4,24,0.00,,,0.00,WUHU216HW,2013-02-27 22:48:00,
2013-02-27 16:53:00,63.0,25.3,29.52,NNE,23,5.4,6.5,24,0.00,,,0.00,WUHU216HW,2013-02-27 22:53:00,
2013-02-27 16:58:00,62.8,24.1,29.52,North,0,7.8,8.9,23,0.00,,,0.00,WUHU216HW,2013-02-27 22:58:00,
2013-02-27 17:03:00,62.3,23.7,29.52,North,0,7.6,8.9,23,0.00,,,0.00,WUHU216HW,2013-02-27 23:03:00,
2013-02-27 17:08:00,61.9,23.4,29.53,NNE,23,5.6,7.6,23,0.00,,,0.00,WUHU216HW,2013-02-27 23:08:00,
2013-02-27 17:13:00,61.6,23.0,29.53,NNE,23,5.8,7.6,23,0.00,,,0.00,WUHU216HW,2013-02-27 23:13:00,
2013-02-27 17:18:00,61.4,23.9,29.53,North,0,2.7,7.6,24,0.00,,,0.00,WUHU216HW,2013-02-27 23:18:00,
2013-02-27 17:23:00,61.6,24.0,29.53,NNE,23,7.6,7.6,24,0.00,,,0.00,WUHU216HW,2013-02-27 23:23:00,
2013-02-27 17:28:00,61.4,23.9,29.53,NNE,23,6.7,7.6,24,0.00,,,0.00,WUHU216HW,2013-02-27 23:28:00,
2013-02-27 17:33:00,61.0,23.6,29.53,NNE,23,4.5,6.7,24,0.00,,,0.00,WUHU216HW,2013-02-27 23:33:00,
2013-02-27 17:38:00,60.8,23.4,29.53,North,0,3.6,6.3,24,0.00,,,0.00,WUHU216HW,2013-02-27 23:38:00,
2013-02-27 17:43:00,60.5,24.1,29.53,NE,45,4.9,6.3,25,0.00,,,0.00,WUHU216HW,2013-02-27 23:43:00,
2013-02-27 17:48:00,60.5,26.0,29.54,NNW,338,6.5,6.5,27,0.00,,,0.00,WUHU216HW,2013-02-27 23:48:00,
2013-02-27 17:53:00,60.3,25.8,29.54,North,0,3.1,6.5,27,0.00,,,0.00,WUHU216HW,2013-02-27 23:53:00,
2013-02-27 17:58:00,60.3,25.8,29.54,NNW,338,4.5,6.5,27,0.00,,,0.00,WUHU216HW,2013-02-27 23:58:00,
2013-02-27 18:03:00,59.9,26.6,29.54,NNW,338,4.9,6.3,28,0.00,,,0.00,WUHU216HW,2013-02-28 00:03:00,
2013-02-27 18:08:00,59.8,26.4,29.54,NNE,23,3.8,6.3,28,0.00,,,0.00,WUHU216HW,2013-02-28 00:08:00,
2013-02-27 18:13:00,59.6,26.2,29.55,North,0,4.7,5.8,28,0.00,,,0.00,WUHU216HW,2013-02-28 00:13:00,
2013-02-27 18:18:00,59.4,27.0,29.55,NNE,23,4.0,5.1,29,0.00,,,0.00,WUHU216HW,2013-02-28 00:18:00,
2013-02-27 18:23:00,59.4,27.0,29.55,North,0,2.5,4.5,29,0.00,,,0.00,WUHU216HW,2013-02-28 00:23:00,
2013-02-27 18:28:00,59.0,27.7,29.55,ESE,113,1.3,4.5,30,0.00,,,0.00,WUHU216HW,2013-02-28 00:28:00,
2013-02-27 18:33:00,58.9,28.3,29.55,NNE,23,2.5,3.4,31,0.00,,,0.00,WUHU216HW,2013-02-28 00:33:00,
2013-02-27 18:38:00,58.3,27.8,29.55,North,0,2.2,3.1,31,0.00,,,0.00,WUHU216HW,2013-02-28 00:38:00,
2013-02-27 18:43:00,58.1,28.4,29.55,NNE,23,2.9,3.4,32,0.00,,,0.00,WUHU216HW,2013-02-28 00:43:00,
2013-02-27 18:48:00,58.0,28.2,29.55,North,0,2.5,3.4,32,0.00,,,0.00,WUHU216HW,2013-02-28 00:48:00,
2013-02-27 18:53:00,57.8,28.0,29.55,NE,45,3.1,3.4,32,0.00,,,0.00,WUHU216HW,2013-02-28 00:53:00,
2013-02-27 18:58:00,57.4,28.4,29.55,ENE,68,2.5,3.4,33,0.00,,,0.00,WUHU216HW,2013-02-28 00:58:00,
2013-02-27 19:03:00,57.2,28.2,29.56,North,0,2.5,3.4,33,0.00,,,0.00,WUHU216HW,2013-02-28 01:03:00,
2013-02-27 19:09:00,57.1,28.1,29.56,NNE,23,2.5,3.6,33,0.00,,,0.00,WUHU216HW,2013-02-28 01:09:00,
2013-02-27 19:14:00,56.9,28.6,29.55,NNE,23,2.5,3.6,34,0.00,,,0.00,WUHU216HW,2013-02-28 01:14:00,
2013-02-27 19:19:00,56.5,28.3,29.56,North,0,2.5,2.9,34,0.00,,,0.00,WUHU216HW,2013-02-28 01:19:00,
2013-02-27 19:24:00,56.3,28.1,29.56,North,0,2.5,3.4,34,0.00,,,0.00,WUHU216HW,2013-02-28 01:24:00,
2013-02-27 19:29:00,56.0,29.2,29.57,NE,45,2.7,3.4,36,0.00,,,0.00,WUHU216HW,2013-02-28 01:29:00,
2013-02-27 19:34:00,55.8,29.0,29.57,North,0,3.1,3.1,36,0.00,,,0.00,WUHU216HW,2013-02-28 01:34:00,
2013-02-27 19:39:00,55.6,28.9,29.57,North,0,3.4,3.4,36,0.00,,,0.00,WUHU216HW,2013-02-28 01:39:00,
2013-02-27 19:44:00,55.3,28.5,29.57,North,0,2.5,3.4,36,0.00,,,0.00,WUHU216HW,2013-02-28 01:44:00,
2013-02-27 19:49:00,55.1,28.4,29.58,NNE,23,2.0,2.7,36,0.00,,,0.00,WUHU216HW,2013-02-28 01:49:00,
2013-02-27 19:54:00,54.7,28.8,29.58,NNE,23,3.6,3.6,37,0.00,,,0.00,WUHU216HW,2013-02-28 01:54:00,
2013-02-27 19:59:00,54.7,28.8,29.58,NNE,23,2.5,3.8,37,0.00,,,0.00,WUHU216HW,2013-02-28 01:59:00,
2013-02-27 20:04:00,54.4,28.4,29.59,North,0,2.9,3.8,37,0.00,,,0.00,WUHU216HW,2013-02-28 02:04:00,
2013-02-27 20:09:00,54.2,29.0,29.59,NNE,23,2.5,3.6,38,0.00,,,0.00,WUHU216HW,2013-02-28 02:09:00,
2013-02-27 20:14:00,53.8,28.7,29.59,NNE,23,2.7,3.4,38,0.00,,,0.00,WUHU216HW,2013-02-28 02:14:00,
2013-02-27 20:19:00,53.6,28.5,29.59,North,0,2.9,2.9,38,0.00,,,0.00,WUHU216HW,2013-02-28 02:19:00,
2013-02-27 20:24:00,53.3,28.2,29.59,North,0,3.4,3.4,38,0.00,,,0.00,WUHU216HW,2013-02-28 02:24:00,
2013-02-27 20:29:00,53.1,28.0,29.60,NNE,23,3.4,3.4,38,0.00,,,0.00,WUHU216HW,2013-02-28 02:29:00,
2013-02-27 20:34:00,52.9,27.9,29.60,NNE,23,2.2,3.4,38,0.00,,,0.00,WUHU216HW,2013-02-28 02:34:00,
2013-02-27 20:39:00,52.6,27.5,29.60,NNW,338,2.2,3.4,38,0.00,,,0.00,WUHU216HW,2013-02-28 02:39:00,
2013-02-27 20:44:00,52.4,27.4,29.60,North,0,2.5,3.4,38,0.00,,,0.00,WUHU216HW,2013-02-28 02:44:00,
2013-02-27 20:49:00,52.2,27.9,29.60,North,0,1.8,2.5,39,0.00,,,0.00,WUHU216HW,2013-02-28 02:49:00,
2013-02-27 20:54:00,52.0,27.7,29.61,North,0,2.5,2.7,39,0.00,,,0.00,WUHU216HW,2013-02-28 02:54:00,
2013-02-27 20:59:00,51.8,27.5,29.60,NNE,23,3.1,3.1,39,0.00,,,0.00,WUHU216HW,2013-02-28 02:59:00,
2013-02-27 21:04:00,51.7,27.5,29.60,North,0,3.4,3.4,39,0.00,,,0.00,WUHU216HW,2013-02-28 03:04:00,
2013-02-27 21:10:00,51.5,27.3,29.60,North,0,3.1,3.4,39,0.00,,,0.00,WUHU216HW,2013-02-28 03:10:00,
2013-02-27 21:15:00,51.1,26.9,29.60,NNE,23,2.5,3.4,39,0.00,,,0.00,WUHU216HW,2013-02-28 03:15:00,
2013-02-27 21:20:00,50.8,26.7,29.60,NNE,23,2.9,3.4,39,0.00,,,0.00,WUHU216HW,2013-02-28 03:20:00,
2013-02-27 21:25:00,50.6,27.1,29.61,North,0,2.5,3.4,40,0.00,,,0.00,WUHU216HW,2013-02-28 03:25:00,
2013-02-27 21:30:00,50.4,26.3,29.60,North,0,3.4,3.4,39,0.00,,,0.00,WUHU216HW,2013-02-28 03:30:00,
2013-02-27 21:35:00,50.2,26.1,29.61,North,0,2.7,3.4,39,0.00,,,0.00,WUHU216HW,2013-02-28 03:35:00,
2013-02-27 21:40:00,50.0,25.9,29.61,NNE,23,2.5,2.7,39,0.00,,,0.00,WUHU216HW,2013-02-28 03:40:00,
2013-02-27 21:45:00,49.9,25.1,29.62,North,0,1.6,2.7,38,0.00,,,0.00,WUHU216HW,2013-02-28 03:45:00,
2013-02-27 21:50:00,49.7,24.9,29.61,NNE,23,2.5,2.5,38,0.00,,,0.00,WUHU216HW,2013-02-28 03:50:00,
2013-02-27 21:55:00,49.5,24.9,29.61,North,0,2.5,2.5,38,0.00,,,0.00,WUHU216HW,2013-02-28 03:55:00,
2013-02-27 22:00:00,49.3,24.7,29.61,NNE,23,1.8,2.5,38,0.00,,,0.00,WUHU216HW,2013-02-28 04:00:00,
2013-02-27 22:05:00,49.3,24.7,29.62,North,0,1.6,2.0,38,0.00,,,0.00,WUHU216HW,2013-02-28 04:05:00,
2013-02-27 22:10:00,49.0,24.3,29.62,NNE,23,2.7,2.7,38,0.00,,,0.00,WUHU216HW,2013-02-28 04:10:00,
2013-02-27 22:15:00,48.8,24.1,29.62,NNE,23,2.5,3.1,38,0.00,,,0.00,WUHU216HW,2013-02-28 04:15:00,
2013-02-27 22:20:00,48.8,24.1,29.62,NNE,23,2.5,3.1,38,0.00,,,0.00,WUHU216HW,2013-02-28 04:20:00,
2013-02-27 22:25:00,48.6,24.0,29.63,North,0,3.1,3.1,38,0.00,,,0.00,WUHU216HW,2013-02-28 04:25:00,
2013-02-27 22:30:00,48.6,24.0,29.63,North,0,2.9,4.0,38,0.00,,,0.00,WUHU216HW,2013-02-28 04:30:00,
2013-02-27 22:35:00,48.4,23.9,29.63,North,0,2.5,4.0,38,0.00,,,0.00,WUHU216HW,2013-02-28 04:35:00,
2013-02-27 22:40:00,48.2,23.7,29.63,North,0,2.5,3.1,38,0.00,,,0.00,WUHU216HW,2013-02-28 04:40:00,
2013-02-27 22:45:00,48.1,23.5,29.63,North,0,2.0,2.9,38,0.00,,,0.00,WUHU216HW,2013-02-28 04:45:00,
2013-02-27 22:50:00,47.9,23.4,29.63,NNE,23,2.9,2.9,38,0.00,,,0.00,WUHU216HW,2013-02-28 04:50:00,
2013-02-27 22:55:00,47.9,23.4,29.63,NNE,23,2.5,3.4,38,0.00,,,0.00,WUHU216HW,2013-02-28 04:55:00,
2013-02-27 23:00:00,47.9,23.4,29.63,NNE,23,2.5,3.6,38,0.00,,,0.00,WUHU216HW,2013-02-28 05:00:00,
2013-02-27 23:05:00,47.5,23.0,29.63,North,0,2.5,3.6,38,0.00,,,0.00,WUHU216HW,2013-02-28 05:05:00,
2013-02-27 23:10:00,47.3,22.9,29.63,North,0,1.1,2.7,38,0.00,,,0.00,WUHU216HW,2013-02-28 05:10:00,
2013-02-27 23:15:00,47.2,22.7,29.64,NNE,23,1.8,2.7,38,0.00,,,0.00,WUHU216HW,2013-02-28 05:15:00,
2013-02-27 23:20:00,46.8,22.4,29.63,North,0,1.8,2.7,38,0.00,,,0.00,WUHU216HW,2013-02-28 05:20:00,
2013-02-27 23:25:00,46.4,22.8,29.63,NNE,23,2.7,2.7,39,0.00,,,0.00,WUHU216HW,2013-02-28 05:25:00,
2013-02-27 23:30:00,46.3,22.6,29.63,North,0,1.8,2.7,39,0.00,,,0.00,WUHU216HW,2013-02-28 05:30:00,
2013-02-27 23:35:00,46.1,21.8,29.63,NE,45,0.4,2.5,38,0.00,,,0.00,WUHU216HW,2013-02-28 05:35:00,
2013-02-27 23:40:00,45.9,21.6,29.64,NE,45,0.9,1.8,38,0.00,,,0.00,WUHU216HW,2013-02-28 05:40:00,
2013-02-27 23:45:00,45.7,22.1,29.64,NE,45,0.4,1.8,39,0.00,,,0.00,WUHU216HW,2013-02-28 05:45:00,
2013-02-27 23:50:00,45.4,21.8,29.64,ENE,68,0.4,1.8,39,0.00,,,0.00,WUHU216HW,2013-02-28 05:50:00,
2013-02-27 23:55:00,45.2,21.6,29.63,East,90,0.9,1.8,39,0.00,,,0.00,WUHU216HW,2013-02-28 05:55:00,